When you browse on this site, cookies collect data to enhance your experience and personalize the content and advertising you see.
Visit our Privacy Policy to learn more. By continuing to use the site, you agree to this use of cookies and data.
  • In Hungary
  • List of Countries
  • For 7 days
  • Water Temperature
  • Weather Map
  • News
  • Weather Widgets
  • user-avatar
    Login

    Hourly Weather Nysanbek

    Today, 14 December, Saturday

    Time Temperature Precipitation Wind Pressure Humidity
    00:00 -5°C° 2 mm 5 mps 652 mmHg 95%
    01:00 -6°C° 2 mm 5 mps 652 mmHg 96%
    02:00 -6°C° 2 mm 5 mps 652 mmHg 97%
    03:00 -7°C° 1.4 mm 4 mps 653 mmHg 97%
    04:00 -6°C° 1.4 mm 3 mps 653 mmHg 96%
    05:00 -5°C° 0 mm 2 mps 653 mmHg 94%
    06:00 -6°C° 0.4 mm 3 mps 654 mmHg 94%
    07:00 -6°C° 0.4 mm 3 mps 654 mmHg 94%
    08:00 -6°C° 0.4 mm 3 mps 655 mmHg 94%
    09:00 -6°C° 0.2 mm 3 mps 655 mmHg 91%
    10:00 -6°C° 0.2 mm 3 mps 655 mmHg 89%
    11:00 -5°C° 0 mm 3 mps 656 mmHg 87%
    12:00 -5°C° 0.1 mm 3 mps 656 mmHg 85%
    13:00 -5°C° 0.1 mm 3 mps 656 mmHg 84%
    14:00 -5°C° 0.1 mm 3 mps 657 mmHg 82%
    15:00 -5°C° 0 mm 2 mps 657 mmHg 83%
    16:00 -6°C° 0 mm 2 mps 657 mmHg 83%
    17:00 -6°C° 0 mm 1 mps 657 mmHg 84%
    18:00 -6°C° 0 mm 1 mps 658 mmHg 82%
    19:00 -6°C° 0 mm 1 mps 658 mmHg 80%
    20:00 -7°C° 0 mm 1 mps 658 mmHg 78%
    21:00 -7°C° 0 mm 1 mps 658 mmHg 76%
    22:00 -7°C° 0 mm 1 mps 658 mmHg 73%
    23:00 -7°C° 0 mm 1 mps 659 mmHg 71%

    Tomorrow, 15 December, Sunday

    Time Temperature Precipitation Wind Pressure Humidity
    00:00 -7°C° 0 mm 1 mps 659 mmHg 69%
    01:00 -7°C° 0 mm 1 mps 659 mmHg 66%
    02:00 -7°C° 0 mm 1 mps 659 mmHg 64%
    03:00 -7°C° 0 mm 1 mps 659 mmHg 62%
    04:00 -7°C° 0 mm 1 mps 659 mmHg 59%
    05:00 -7°C° 0 mm 1 mps 659 mmHg 57%
    06:00 -7°C° 0 mm 1 mps 659 mmHg 55%
    07:00 -7°C° 0 mm 1 mps 659 mmHg 53%
    08:00 -7°C° 0 mm 1 mps 659 mmHg 51%
    09:00 -4°C° 0 mm 1 mps 659 mmHg 50%
    10:00 -3°C° 0 mm 1 mps 660 mmHg 50%
    11:00 -1°C° 0 mm 1 mps 660 mmHg 49%
    12:00 -1°C° 0 mm 1 mps 660 mmHg 51%
    13:00 0°C° 0 mm 1 mps 660 mmHg 53%
    14:00 0°C° 0 mm 1 mps 660 mmHg 55%
    15:00 -2°C° 0 mm 1 mps 659 mmHg 55%
    16:00 -5°C° 0 mm 2 mps 659 mmHg 55%
    17:00 -6°C° 0 mm 2 mps 659 mmHg 55%
    18:00 -7°C° 0 mm 2 mps 659 mmHg 52%
    19:00 -8°C° 0 mm 3 mps 659 mmHg 48%
    20:00 -8°C° 0 mm 3 mps 659 mmHg 44%
    21:00 -8°C° 0 mm 3 mps 659 mmHg 42%
    22:00 -8°C° 0 mm 3 mps 659 mmHg 39%
    23:00 -8°C° 0 mm 3 mps 659 mmHg 37%

    Day after tomorrow, 16 December, Monday

    Time Temperature Precipitation Wind Pressure Humidity
    00:00 -8°C° 0 mm 3 mps 658 mmHg 35%
    01:00 -8°C° 0 mm 3 mps 658 mmHg 34%
    02:00 -8°C° 0 mm 3 mps 658 mmHg 33%
    03:00 -8°C° 0 mm 3 mps 658 mmHg 31%
    04:00 -8°C° 0 mm 3 mps 658 mmHg 30%
    05:00 -7°C° 0 mm 3 mps 658 mmHg 28%
    06:00 -7°C° 0 mm 3 mps 658 mmHg 27%
    07:00 -7°C° 0 mm 3 mps 658 mmHg 27%
    08:00 -7°C° 0 mm 3 mps 659 mmHg 26%
    09:00 -4°C° 0 mm 2 mps 659 mmHg 28%
    10:00 -2°C° 0 mm 2 mps 660 mmHg 31%
    11:00 +1°C° 0 mm 1 mps 660 mmHg 34%
    12:00 +2°C° 0 mm 1 mps 660 mmHg 35%
    13:00 +2°C° 0 mm 1 mps 660 mmHg 36%
    14:00 +3°C° 0 mm 1 mps 659 mmHg 37%
    15:00 +1°C° 0 mm 1 mps 659 mmHg 35%
    16:00 -2°C° 0 mm 2 mps 659 mmHg 33%
    17:00 -4°C° 0 mm 2 mps 658 mmHg 31%
    18:00 -4°C° 0 mm 2 mps 658 mmHg 29%
    19:00 -4°C° 0 mm 2 mps 658 mmHg 27%
    20:00 -5°C° 0 mm 3 mps 658 mmHg 25%
    21:00 -5°C° 0 mm 3 mps 658 mmHg 24%
    22:00 -5°C° 0 mm 3 mps 658 mmHg 23%
    23:00 -5°C° 0 mm 3 mps 658 mmHg 22%

    17 December, Tuesday

    Time Temperature Precipitation Wind Pressure Humidity
    00:00 -4°C° 0 mm 3 mps 658 mmHg 22%
    01:00 -4°C° 0 mm 3 mps 658 mmHg 22%
    02:00 -4°C° 0 mm 3 mps 658 mmHg 23%
    03:00 -4°C° 0 mm 3 mps 658 mmHg 23%
    04:00 -4°C° 0 mm 3 mps 658 mmHg 24%
    05:00 -3°C° 0 mm 2 mps 658 mmHg 25%
    06:00 -2°C° 0 mm 2 mps 658 mmHg 26%
    07:00 -2°C° 0 mm 3 mps 659 mmHg 28%
    08:00 -2°C° 0 mm 3 mps 659 mmHg 29%
    09:00 -1°C° 0 mm 2 mps 659 mmHg 33%
    10:00 +2°C° 0 mm 2 mps 659 mmHg 36%
    11:00 +3°C° 0 mm 2 mps 660 mmHg 40%
    12:00 +4°C° 0 mm 2 mps 660 mmHg 41%
    13:00 +5°C° 0 mm 1 mps 659 mmHg 42%
    14:00 +6°C° 0 mm 1 mps 659 mmHg 43%
    15:00 +4°C° 0 mm 1 mps 659 mmHg 44%
    16:00 +2°C° 0 mm 2 mps 658 mmHg 46%
    17:00 0°C° 0 mm 3 mps 658 mmHg 47%
    18:00 0°C° 0 mm 3 mps 658 mmHg 50%
    19:00 0°C° 0 mm 3 mps 658 mmHg 53%
    20:00 0°C° 0 mm 3 mps 658 mmHg 56%
    21:00 -1°C° 0 mm 3 mps 657 mmHg 57%
    22:00 -1°C° 0 mm 3 mps 657 mmHg 58%
    23:00 -1°C° 0 mm 3 mps 657 mmHg 59%

    18 December, Wednesday

    Time Temperature Precipitation Wind Pressure Humidity
    00:00 -1°C° 0 mm 3 mps 657 mmHg 59%
    01:00 0°C° 0 mm 3 mps 657 mmHg 59%
    02:00 0°C° 0 mm 3 mps 657 mmHg 59%
    03:00 0°C° 0 mm 3 mps 657 mmHg 62%
    04:00 0°C° 0 mm 3 mps 656 mmHg 64%
    05:00 0°C° 0 mm 3 mps 656 mmHg 66%
    06:00 0°C° 0.1 mm 3 mps 657 mmHg 69%
    07:00 +1°C° 0.1 mm 2 mps 657 mmHg 71%
    08:00 +1°C° 0.1 mm 2 mps 657 mmHg 73%
    09:00 +1°C° 0.2 mm 3 mps 657 mmHg 74%
    10:00 +2°C° 0.2 mm 3 mps 658 mmHg 75%
    11:00 +3°C° 0.2 mm 3 mps 658 mmHg 75%
    12:00 +1°C° 0.4 mm 4 mps 658 mmHg 76%
    13:00 +1°C° 0.4 mm 5 mps 658 mmHg 76%
    14:00 +1°C° 0.4 mm 6 mps 658 mmHg 77%
    15:00 0°C° 0.2 mm 5 mps 658 mmHg 76%
    16:00 0°C° 0.2 mm 4 mps 659 mmHg 75%
    17:00 -1°C° 0.2 mm 4 mps 659 mmHg 75%
    18:00 -1°C° 0.1 mm 3 mps 659 mmHg 75%
    19:00 -1°C° 0.1 mm 3 mps 659 mmHg 75%
    20:00 -2°C° 0.1 mm 3 mps 660 mmHg 75%
    21:00 -2°C° 0 mm 3 mps 660 mmHg 76%
    22:00 -3°C° 0 mm 2 mps 660 mmHg 78%
    23:00 -4°C° 0 mm 2 mps 660 mmHg 80%

    19 December, Thursday

    Time Temperature Precipitation Wind Pressure Humidity
    00:00 -4°C° 0 mm 2 mps 660 mmHg 80%
    01:00 -4°C° 0 mm 2 mps 660 mmHg 80%
    02:00 -4°C° 0 mm 2 mps 660 mmHg 80%
    03:00 -4°C° 0 mm 2 mps 660 mmHg 78%
    04:00 -3°C° 0 mm 2 mps 659 mmHg 77%
    05:00 -3°C° 0 mm 2 mps 659 mmHg 75%
    06:00 -3°C° 0 mm 2 mps 660 mmHg 74%
    07:00 -3°C° 0 mm 2 mps 660 mmHg 73%
    08:00 -3°C° 0 mm 2 mps 660 mmHg 72%
    09:00 -2°C° 0 mm 2 mps 660 mmHg 71%
    10:00 -1°C° 0 mm 3 mps 660 mmHg 69%
    11:00 +1°C° 0 mm 3 mps 661 mmHg 68%
    12:00 +1°C° 0 mm 3 mps 660 mmHg 67%
    13:00 +1°C° 0 mm 3 mps 660 mmHg 67%
    14:00 +2°C° 0 mm 3 mps 660 mmHg 66%
    15:00 +1°C° 0 mm 3 mps 659 mmHg 71%
    16:00 +1°C° 0 mm 2 mps 659 mmHg 76%
    17:00 -1°C° 0 mm 2 mps 658 mmHg 80%
    18:00 -2°C° 0 mm 2 mps 658 mmHg 80%
    19:00 0°C° 0 mm 1 mps 658 mmHg 79%
    20:00 0°C° 0 mm 1 mps 658 mmHg 79%
    21:00 0°C° 0 mm 1 mps 658 mmHg 78%
    22:00 0°C° 0 mm 1 mps 658 mmHg 78%
    23:00 0°C° 0 mm 1 mps 658 mmHg 77%
    Show more